| time (UTC) | temp F | wind direction | speed MPH | gust MPH | rain 1hr in | rain 24hr in | rain mn in | humidity % | barometer mb |
| 20260505233525 | 50 | 163 | 1.0 | 2.0 | 0.00 | 0.00 | 0.00 | 80 | |
| 20260505232526 | 50 | 0.0 | 0.0 | 0.00 | 0.00 | 0.00 | 79 | ||
| 20260505231526 | 50 | 351 | 1.0 | 5.0 | 0.00 | 0.00 | 0.00 | 79 | |
| 20260505230526 | 50 | 118 | 2.0 | 4.0 | 0.00 | 0.00 | 0.00 | 78 | |
| 20260505225026 | 50 | 107 | 0.0 | 3.0 | 0.00 | 0.00 | 0.00 | 80 | |
| 20260505224026 | 49 | 354 | 0.0 | 3.0 | 0.00 | 0.00 | 0.00 | 82 | |
| 20260505223026 | 49 | 0.0 | 0.0 | 0.00 | 0.00 | 0.00 | 84 | ||
| 20260505222027 | 49 | 0.0 | 0.0 | 0.00 | 0.00 | 0.00 | 85 | ||
| 20260505221026 | 48 | 0.0 | 0.0 | 0.00 | 0.00 | 0.00 | 85 | ||
| 20260505220026 | 48 | 0.0 | 0.0 | 0.00 | 0.00 | 0.00 | 86 | ||
| 20260505215026 | 48 | 0.0 | 0.0 | 0.00 | 0.00 | 0.00 | 85 | ||
| 20260505214026 | 49 | 0.0 | 0.0 | 0.00 | 0.00 | 0.00 | 84 | ||
| 20260505213026 | 49 | 0.0 | 0.0 | 0.00 | 0.00 | 0.00 | 83 | ||
| 20260505212026 | 50 | 0.0 | 0.0 | 0.00 | 0.00 | 0.00 | 81 | ||
| 20260505211026 | 50 | 0.0 | 0.0 | 0.00 | 0.00 | 0.00 | 80 | ||
| 20260505210026 | 51 | 0.0 | 0.0 | 0.00 | 0.00 | 0.00 | 78 | ||
| 20260505205026 | 51 | 0.0 | 0.0 | 0.00 | 0.00 | 0.00 | 76 | ||
| 20260505204026 | 51 | 312 | 0.0 | 2.0 | 0.00 | 0.00 | 0.00 | 75 | |
| 20260505203026 | 52 | 0.0 | 0.0 | 0.00 | 0.00 | 0.00 | 75 | ||
| 20260505202026 | 52 | 312 | 0.0 | 2.0 | 0.00 | 0.00 | 0.00 | 75 | |
| 20260505201026 | 52 | 310 | 2.0 | 3.0 | 0.00 | 0.00 | 0.00 | 74 | |
| 20260505200026 | 52 | 306 | 0.0 | 2.0 | 0.00 | 0.00 | 0.00 | 74 | |
| 20260505195026 | 52 | 306 | 1.0 | 2.0 | 0.00 | 0.00 | 0.00 | 72 | |
| 20260505194026 | 53 | 312 | 1.0 | 2.0 | 0.00 | 0.00 | 0.00 | 71 | |
| 20260505193026 | 53 | 312 | 1.0 | 2.0 | 0.00 | 0.00 | 0.00 | 71 | |
| 20260505192026 | 54 | 317 | 1.0 | 4.0 | 0.00 | 0.00 | 0.00 | 70 | |
| 20260505191025 | 54 | 318 | 2.0 | 4.0 | 0.00 | 0.00 | 0.00 | 69 | |
| 20260505190025 | 54 | 307 | 2.0 | 4.0 | 0.00 | 0.00 | 0.00 | 68 | |
| 20260505185025 | 55 | 313 | 3.0 | 6.0 | 0.00 | 0.00 | 0.00 | 66 | |
| 20260505184025 | 55 | 327 | 2.0 | 4.0 | 0.00 | 0.00 | 0.00 | 64 | |
| 20260505183025 | 55 | 300 | 1.0 | 2.0 | 0.00 | 0.00 | 0.00 | 64 | |
| 20260505182025 | 55 | 304 | 2.0 | 3.0 | 0.00 | 0.00 | 0.00 | 64 | |
| 20260505181025 | 55 | 306 | 4.0 | 7.0 | 0.00 | 0.00 | 0.00 | 63 | |
| 20260505180025 | 56 | 311 | 2.0 | 5.0 | 0.00 | 0.00 | 0.00 | 62 | |
| 20260505175025 | 56 | 348 | 2.0 | 5.0 | 0.00 | 0.00 | 0.00 | 62 | |
| 20260505174024 | 56 | 346 | 1.0 | 4.0 | 0.00 | 0.00 | 0.00 | 63 | |
| 20260505173025 | 56 | 310 | 2.0 | 6.0 | 0.00 | 0.00 | 0.00 | 62 | |
| 20260505172025 | 56 | 314 | 3.0 | 6.0 | 0.00 | 0.00 | 0.00 | 61 | |
| 20260505171026 | 56 | 323 | 3.0 | 7.0 | 0.00 | 0.00 | 0.00 | 63 | |
| 20260505170024 | 57 | 37 | 2.0 | 5.0 | 0.00 | 0.00 | 0.00 | 61 | |
| 20260505165025 | 57 | 302 | 2.0 | 4.0 | 0.00 | 0.00 | 0.00 | 59 | |
| 20260505164025 | 57 | 311 | 3.0 | 6.0 | 0.00 | 0.00 | 0.00 | 58 | |
| 20260505163025 | 57 | 294 | 3.0 | 6.0 | 0.00 | 0.00 | 0.00 | 58 | |
| 20260505162025 | 57 | 312 | 4.0 | 8.0 | 0.00 | 0.00 | 0.00 | 57 | |
| 20260505161025 | 57 | 314 | 3.0 | 6.0 | 0.00 | 0.00 | 0.00 | 57 | |
| 20260505153024 | 58 | 308 | 3.0 | 6.0 | 0.00 | 0.00 | 0.00 | 56 | |
| 20260505152024 | 58 | 301 | 3.0 | 5.0 | 0.00 | 0.00 | 0.00 | 56 | |
| 20260505151024 | 58 | 309 | 3.0 | 6.0 | 0.00 | 0.00 | 0.00 | 57 | |
| 20260505125022 | 59 | 320 | 3.0 | 9.0 | 0.00 | 0.00 | 0.00 | 53 | |
| 20260505124022 | 59 | 318 | 3.0 | 7.0 | 0.00 | 0.00 | 0.00 | 52 | |
| 20260505123023 | 58 | 314 | 3.0 | 5.0 | 0.00 | 0.00 | 0.00 | 55 | |
| 20260505122022 | 58 | 327 | 3.0 | 8.0 | 0.00 | 0.00 | 0.00 | 56 | |
| 20260505121022 | 57 | 349 | 3.0 | 5.0 | 0.00 | 0.00 | 0.00 | 57 | |
| 20260505120023 | 57 | 329 | 3.0 | 6.0 | 0.00 | 0.00 | 0.00 | 58 | |
| 20260505115022 | 57 | 327 | 2.0 | 4.0 | 0.00 | 0.00 | 0.00 | 59 | |
| 20260505114022 | 57 | 318 | 3.0 | 6.0 | 0.00 | 0.00 | 0.00 | 59 | |
| 20260505113023 | 56 | 327 | 2.0 | 4.0 | 0.00 | 0.00 | 0.00 | 61 | |
| 20260505112023 | 56 | 310 | 2.0 | 4.0 | 0.00 | 0.00 | 0.00 | 61 | |
| 20260505111023 | 56 | 339 | 3.0 | 5.0 | 0.00 | 0.00 | 0.00 | 63 | |
| 20260505102022 | 56 | 352 | 3.0 | 5.0 | 0.00 | 0.00 | 0.00 | 66 | |
| 20260505101022 | 55 | 323 | 2.0 | 6.0 | 0.00 | 0.00 | 0.00 | 69 | |
| 20260505100022 | 56 | 39 | 3.0 | 6.0 | 0.00 | 0.00 | 0.00 | 65 | |
| 20260505095022 | 56 | 331 | 3.0 | 6.0 | 0.00 | 0.00 | 0.00 | 65 | |
| 20260505094022 | 55 | 326 | 3.0 | 6.0 | 0.00 | 0.00 | 0.00 | 68 | |
| 20260505093022 | 55 | 325 | 3.0 | 5.0 | 0.00 | 0.00 | 0.00 | 70 | |
| 20260505092022 | 54 | 320 | 3.0 | 6.0 | 0.00 | 0.00 | 0.00 | 72 | |
| 20260505091022 | 52 | 308 | 4.0 | 8.0 | 0.00 | 0.00 | 0.00 | 74 | |
| 20260505090022 | 53 | 315 | 3.0 | 5.0 | 0.00 | 0.00 | 0.00 | 74 | |
| 20260505085022 | 51 | 313 | 4.0 | 10.0 | 0.00 | 0.00 | 0.00 | 78 | |
| 20260505084021 | 51 | 308 | 2.0 | 6.0 | 0.00 | 0.00 | 0.00 | 79 | |
| 20260505083021 | 51 | 306 | 2.0 | 4.0 | 0.00 | 0.00 | 0.00 | 80 |